Date String (YYYY-MM-DD hh:mm:ss) UTC,Instrument flags,absolute air pressure of the measurement (hPa),sample flow rate (lpm),inlet stack bypass flow (lpm),air temperature of the measurement (°C),ambient temperature measured by the external sensor (°C),aerosol sample conditioner tube jacket temperature (°C),OPC LED temperature (°C),internal box temperature (°C),relative humidity of the measurement (%),span deviation,mass concentration of particles derived from Lorenz-Mie calculation of OPC scattering (μg/m³),mass concentration of particles derived from Lorenz-Mie calculation of OPC scattering (μg/m³),mass concentration of particles derived from Lorenz-Mie calculation of OPC scattering (μg/m³)
DateTimeUTC,F1_M11,P_M11,Q1_M11,Q2_M11,T1_M11,T2_M11,T3_M11,T4_M11,T5_M11,U1_M11,ZSPAN_M11,X0_M11,X2_M11,X1_M11
2024-04-22 03:00:00,SystemResetWarning,0828.9,5.01,000.00,025.3,024.5,000.0,033.9,027.1,020.8,0002.7,0010.62,0006.62,0005.83
2024-04-22 03:01:00,SystemResetWarning,0828.9,5.01,000.00,025.3,024.5,000.0,033.9,027.1,020.9,0002.7,0011.05,0006.61,0005.79
2024-04-22 03:02:00,SystemResetWarning,0828.9,5.00,000.00,025.3,024.5,000.0,033.9,027.1,020.9,0002.3,0011.27,0006.61,0005.78
2024-04-22 03:03:00,SystemResetWarning,0828.9,5.01,000.00,025.3,024.5,000.0,033.9,027.1,020.9,0002.4,0011.29,0006.58,0005.77
2024-04-22 03:04:00,SystemResetWarning,0828.9,5.00,000.00,025.3,024.5,000.0,033.8,027.2,021.1,0002.5,0011.18,0006.65,0005.80
2024-04-22 03:05:00,SystemResetWarning,0828.9,5.01,000.00,025.3,024.5,000.0,033.8,027.2,020.8,0002.5,0011.12,0006.65,0005.82
2024-04-22 03:06:00,SystemResetWarning,0829.0,5.00,000.00,025.3,024.5,000.0,033.8,027.2,020.7,0002.4,0010.91,0006.58,0005.79
2024-04-22 03:07:00,SystemResetWarning,0828.9,4.99,000.00,025.3,024.5,000.0,033.8,027.2,020.8,0003.0,0010.72,0006.52,0005.78
2024-04-22 03:08:00,SystemResetWarning,0828.9,5.01,000.00,025.3,024.5,000.0,033.8,027.2,020.9,0003.4,0010.55,0006.51,0005.79
2024-04-22 03:09:00,SystemResetWarning,0829.0,5.01,000.00,025.3,024.5,000.0,033.8,027.1,021.0,0003.2,0010.46,0006.51,0005.80
2024-04-22 03:10:00,SystemResetWarning,0828.9,5.00,000.00,025.3,024.5,000.0,033.8,027.1,021.1,0003.0,0010.41,0006.48,0005.80
2024-04-22 03:11:00,SystemResetWarning,0828.9,4.99,000.00,025.3,024.5,000.0,033.8,027.1,021.2,0003.0,0010.42,0006.47,0005.82
2024-04-22 03:12:00,SystemResetWarning,0829.0,4.99,000.00,025.3,024.5,000.0,033.8,027.1,021.4,0002.8,0010.09,0006.47,0005.86
2024-04-22 03:13:00,SystemResetWarning,0828.9,4.99,000.00,025.3,024.5,000.0,033.8,027.1,021.4,0002.4,0010.01,0006.48,0005.89
2024-04-22 03:14:00,SystemResetWarning,0828.9,5.01,000.00,025.3,024.5,000.0,033.8,027.1,021.6,0002.1,0010.25,0006.50,0005.91
2024-04-22 03:15:00,SystemResetWarning,0828.9,5.01,000.00,025.3,024.5,000.0,033.8,027.1,021.8,0001.9,0010.48,0006.50,0005.94
2024-04-22 03:16:00,SystemResetWarning,0828.9,5.00,000.00,025.3,024.5,000.0,033.8,027.1,022.0,0001.8,0010.60,0006.47,0005.93
2024-04-22 03:17:00,SystemResetWarning,0828.9,5.00,000.00,025.3,024.5,000.0,033.8,027.1,022.1,0002.2,0010.65,0006.51,0005.96
2024-04-22 03:18:00,SystemResetWarning,0828.9,5.00,000.00,025.3,024.5,000.0,033.8,027.1,021.8,0002.3,0010.87,0006.57,0006.00
2024-04-22 03:19:00,SystemResetWarning,0828.9,5.00,000.00,025.3,024.5,000.0,033.8,027.1,021.5,0001.6,0011.01,0006.62,0006.02
2024-04-22 03:20:00,SystemResetWarning,0829.0,5.00,000.00,025.3,024.5,000.0,033.8,027.1,021.5,0001.7,0010.96,0006.61,0006.01
2024-04-22 03:21:00,SystemResetWarning,0828.9,5.00,000.00,025.3,024.5,000.0,033.8,027.1,021.5,0002.0,0010.96,0006.60,0006.01
2024-04-22 03:22:00,SystemResetWarning,0829.0,5.00,000.00,025.3,024.5,000.0,033.8,027.2,021.6,0002.0,0011.04,0006.66,0006.04
2024-04-22 03:23:00,SystemResetWarning,0829.0,5.00,000.00,025.3,024.5,000.0,033.8,027.2,021.7,0002.4,0011.02,0006.67,0006.06
2024-04-22 03:24:00,SystemResetWarning,0829.0,5.00,000.00,025.3,024.5,000.0,033.8,027.2,021.3,0002.7,0011.11,0006.73,0006.09
2024-04-22 03:25:00,SystemResetWarning,0828.9,5.01,000.00,025.3,024.5,000.0,033.8,027.2,021.1,0003.1,0010.50,0006.66,0006.05
2024-04-22 03:26:00,SystemResetWarning,0828.9,5.00,000.00,025.3,024.6,000.0,033.9,027.2,020.9,0002.8,0010.29,0006.59,0005.98
2024-04-22 03:27:00,SystemResetWarning,0829.0,5.00,000.00,025.3,024.6,000.0,033.9,027.2,020.9,0002.8,0009.89,0006.53,0005.92
2024-04-22 03:28:00,SystemResetWarning,0829.0,5.00,000.00,025.3,024.6,000.0,033.9,027.2,020.9,0003.0,0009.88,0006.48,0005.85
2024-04-22 03:29:00,SystemResetWarning,0829.0,5.00,000.00,025.3,024.6,000.0,033.8,027.2,020.6,0002.9,0009.81,0006.42,0005.80
2024-04-22 03:30:00,SystemResetWarning,0828.9,4.99,000.00,025.3,024.5,000.0,033.8,027.2,020.6,0002.8,0010.32,0006.30,0005.71
2024-04-22 03:31:00,SystemResetWarning,0829.0,5.00,000.00,025.3,024.5,000.0,033.9,027.2,020.6,0002.9,0010.23,0006.22,0005.65
2024-04-22 03:32:00,SystemResetWarning,0829.0,5.00,000.00,025.3,024.5,000.0,033.9,027.2,020.6,0002.7,0010.55,0006.18,0005.58
2024-04-22 03:33:00,SystemResetWarning,0829.0,5.00,000.00,025.3,024.5,000.0,033.9,027.2,020.6,0002.6,0010.98,0006.11,0005.52
2024-04-22 03:34:00,SystemResetWarning,0829.0,5.00,000.00,025.3,024.5,000.0,033.9,027.1,020.5,0003.1,0011.39,0006.04,0005.45
2024-04-22 03:35:00,SystemResetWarning,0828.9,5.00,000.00,025.3,024.5,000.0,033.9,027.2,020.4,0003.2,0011.20,0005.89,0005.34
2024-04-22 03:36:00,SystemResetWarning,0828.9,5.00,000.00,025.3,024.5,000.0,033.9,027.2,020.5,0003.2,0011.16,0005.81,0005.25
2024-04-22 03:37:00,SystemResetWarning,0828.8,5.00,000.00,025.3,024.5,000.0,033.8,027.1,020.5,0003.6,0011.14,0005.81,0005.23
2024-04-22 03:38:00,SystemResetWarning,0828.8,5.00,000.00,025.3,024.5,000.0,033.8,027.1,020.5,0004.1,0011.46,0005.78,0005.22
2024-04-22 03:39:00,SystemResetWarning,0828.8,5.01,000.00,025.3,024.5,000.0,033.8,027.1,020.3,0004.0,0011.50,0005.75,0005.19
2024-04-22 03:40:00,SystemResetWarning,0828.8,5.00,000.00,025.3,024.5,000.0,033.8,027.1,020.4,0003.4,0011.38,0005.67,0005.13
2024-04-22 03:41:00,SystemResetWarning,0828.8,5.00,000.00,025.3,024.5,000.0,033.8,027.1,020.2,0003.3,0010.77,0005.64,0005.09
2024-04-22 03:42:00,SystemResetWarning,0828.8,5.00,000.00,025.3,024.5,000.0,033.8,027.1,020.1,0003.0,0010.56,0005.63,0005.09
2024-04-22 03:43:00,SystemResetWarning,0828.8,5.00,000.00,025.3,024.5,000.0,033.8,027.1,020.2,0003.5,0010.66,0005.59,0005.07
2024-04-22 03:44:00,SystemResetWarning,0828.8,5.02,000.00,025.3,024.5,000.0,033.8,027.1,020.2,0003.8,0010.23,0005.57,0005.06
2024-04-22 03:45:00,SystemResetWarning,0828.7,4.99,000.00,025.3,024.5,000.0,033.8,027.1,020.2,0003.5,0009.52,0005.55,0005.03
2024-04-22 03:46:00,SystemResetWarning,0828.7,4.99,000.00,025.3,024.5,000.0,033.8,027.1,020.2,0003.4,0009.58,0005.56,0005.02
2024-04-22 03:47:00,SystemResetWarning,0828.7,5.00,000.00,025.3,024.5,000.0,033.8,027.1,020.0,0003.4,0009.57,0005.54,0005.00
2024-04-22 03:48:00,SystemResetWarning,0828.7,5.01,000.00,025.3,024.5,000.0,033.8,027.1,019.9,0003.2,0009.63,0005.50,0004.96
2024-04-22 03:49:00,SystemResetWarning,0828.7,5.01,000.00,025.3,024.5,000.0,033.8,027.1,019.9,0003.2,0009.35,0005.47,0004.91
2024-04-22 03:50:00,SystemResetWarning,0828.8,5.00,000.00,025.3,024.5,000.0,033.8,027.1,019.8,0003.2,0009.35,0005.48,0004.89
2024-04-22 03:51:00,SystemResetWarning,0828.8,4.99,000.00,025.3,024.4,000.0,033.8,027.1,019.6,0003.4,0009.32,0005.43,0004.86
2024-04-22 03:52:00,SystemResetWarning,0828.7,5.00,000.00,025.3,024.4,000.0,033.8,027.1,019.6,0001.6,0009.33,0005.41,0004.83
2024-04-22 03:53:00,SystemResetWarning,0828.7,5.02,000.00,025.3,024.4,000.0,033.8,027.1,019.8,0000.0,0009.29,0005.37,0004.79
2024-04-22 03:54:00,SystemResetWarning,0828.7,4.99,000.00,025.3,024.4,000.0,033.8,027.1,019.8,0000.0,0008.85,0005.37,0004.77
2024-04-22 03:55:00,SystemResetWarning,0828.8,4.99,000.00,025.3,024.4,000.0,033.8,027.1,019.8,0000.0,0008.97,0005.32,0004.72
2024-04-22 03:56:00,SystemResetWarning,0828.7,5.00,000.00,025.3,024.4,000.0,033.8,027.1,019.8,0000.0,0009.06,0005.26,0004.67
2024-04-22 03:57:00,SystemResetWarning,0828.7,5.01,000.00,025.3,024.4,000.0,033.8,027.1,020.0,0000.0,0008.97,0005.20,0004.63
2024-04-22 03:58:00,SystemResetWarning,0828.7,5.02,000.00,025.3,024.4,000.0,033.8,027.1,020.2,0000.0,0008.91,0005.16,0004.60
2024-04-22 03:59:00,SystemResetWarning,0828.7,5.00,000.00,025.2,024.4,000.0,033.8,027.1,019.7,0000.0,0008.89,0005.14,0004.57
